Location: Squirrel Cove
(50.1074°N, 124.9139°W)
Time: 23:21:11
(UTC-08:00)

BlueWalker 3 - Pass Details

Date: 07 December 2022
Orbit: 499 x 517 km, 53.2° (Epoch: 29 January)

Event Time Altitude Azimuth Distance (km) Brightness Sun altitude
Rises 17:32:23 0° 289° (WNW) 2,635 6.4 -11.3°
Reaches altitude 10° 17:34:36 10° 292° (WNW) 1,743 5.4 -11.6°
Maximum altitude 17:38:33 72° 17° (NNE) 543 1.9 -12.2°
Enters shadow 17:41:33 16° 100° (E) 1,375 3.6 -12.7°
